Norfolk, NE

3:43 AM CDT on August 22, 2017 (GMT -0500)
Stefan Memorial

Weather History for KOFK - November, 2010

Change the Weather History Date:

Tuesday, November 23, 2010

  Actual Average Record
Temperature  
Mean Temperature 19 °F 32 °F  
Max Temperature 29 °F 43 °F 66 °F (1902)
Min Temperature 8 °F 22 °F -10 °F (1898)
Degree Days  
Heating Degree Days 46 33  
Month to date heating degree days 587 615  
Since 1 July heating degree days 1016 1200  
Cooling Degree Days 0 0  
Month to date cooling degree days 0 0  
Year to date cooling degree days 985 915  
Moisture  
Dew Point 11 °F    
Average Humidity 69    
Maximum Humidity 84    
Minimum Humidity 53    
Precipitation  
Precipitation 0.00 in 0.04 in 0.95 in (2001)
Month to date precipitation 0.20 1.09  
Year to date precipitation 28.73 26.38  
Snow  
Snow 0.00 in 0.10 in - ()
Month to date snowfall 0.0 2.7  
Since 1 July snowfall T 3.5  
Snow Depth 0.00 in    
Sea Level Pressure  
Sea Level Pressure 30.20 in    
Wind  
Wind Speed 8 mph (ESE)    
Max Wind Speed 20 mph    
Max Gust Speed 26 mph    
Visibility 10 miles    
Events      
T = Trace of Precipitation, MM = Missing Value Source: NWS Daily Summary

Daily Weather History Graph

Daily Weather History Graph

Search for Another Location

Airport or City:

Trip Planner

Search our weather history database for the weather conditions in past years. The results will help you decide how hot, cold, wet, or windy it might be!

Date:

Astronomy

Nov. 23, 2010 Rise Set
Actual Time 7:29 AM CST 5:02 PM CST
Civil Twilight 6:58 AM CST 5:33 PM CST
Nautical Twilight 6:24 AM CST 6:07 PM CST
Astronomical Twilight 5:51 AM CST 6:40 PM CST
Moon 6:43 PM CST (11/23) 9:29 AM CST (11/23)
Length of Visible Light 10h 34m
Length of Day
9h 33m
Waning Gibbous, 96% of the Moon is Illuminated
Nov 23
Waning Gibbous
Nov 28
Last Quarter
Dec 5
New
Dec 13
First Quarter
Dec 21
Full

Hourly Weather History & Observations

Time (CST) Temp. Windchill Dew Point Humidity Pressure Visibility Wind Dir Wind Speed Gust Speed Precip Events Conditions
12:56 AM 12.9 °F 3.8 °F 9.0 °F 84% 30.22 in 10.0 mi NW 5.8 mph - N/A   Partly Cloudy
1:13 AM 14.0 °F 2.9 °F 8.6 °F 79% 30.15 in 10.0 mi NW 8.1 mph - N/A   Mostly Cloudy
1:35 AM 14.0 °F 2.9 °F 8.6 °F 79% 30.17 in 10.0 mi WNW 8.1 mph - N/A   Scattered Clouds
2:56 AM 12.9 °F 1.6 °F 7.0 °F 77% 30.26 in 10.0 mi NW 8.1 mph - N/A   Clear
3:56 AM 12.0 °F 2.7 °F 6.1 °F 77% 30.27 in 10.0 mi NW 5.8 mph - N/A   Clear
4:56 AM 10.0 °F 1.8 °F 5.0 °F 80% 30.27 in 10.0 mi NW 4.6 mph - N/A   Clear
5:56 AM 10.0 °F -0.9 °F 5.0 °F 80% 30.29 in 10.0 mi WNW 6.9 mph - N/A   Clear
6:56 AM 9.0 °F 0.6 °F 3.9 °F 80% 30.30 in 10.0 mi NW 4.6 mph - N/A   Clear
7:56 AM 10.0 °F 3.6 °F 3.9 °F 76% 30.31 in 10.0 mi NNW 3.5 mph - N/A   Clear
9:56 AM 15.1 °F - 7.0 °F 70% 30.32 in 10.0 mi Calm Calm - N/A   Clear
10:56 AM 19.0 °F 13.9 °F 9.0 °F 65% 30.32 in 10.0 mi Variable 3.5 mph - N/A   Clear
11:56 AM 21.9 °F 14.5 °F 10.9 °F 63% 30.30 in 10.0 mi ESE 5.8 mph - N/A   Clear
12:56 PM 25.0 °F 15.5 °F 12.9 °F 60% 30.27 in 10.0 mi SE 9.2 mph - N/A   Clear
1:56 PM 27.0 °F 17.3 °F 15.1 °F 61% 30.23 in 10.0 mi SSE 10.4 mph - N/A   Clear
2:56 PM 28.0 °F 17.0 °F 14.0 °F 56% 30.20 in 10.0 mi SE 13.8 mph - N/A   Clear
3:56 PM 28.0 °F 17.0 °F 14.0 °F 56% 30.19 in 10.0 mi SE 13.8 mph - N/A   Clear
4:56 PM 26.1 °F 17.6 °F 14.0 °F 60% 30.18 in 10.0 mi ESE 8.1 mph - N/A   Clear
5:56 PM 23.0 °F 13.9 °F 14.0 °F 68% 30.17 in 10.0 mi ESE 8.1 mph - N/A   Clear
6:56 PM 21.0 °F 10.6 °F 14.0 °F 74% 30.14 in 10.0 mi ESE 9.2 mph - N/A   Clear
7:56 PM 19.9 °F 11.1 °F 12.9 °F 74% 30.12 in 10.0 mi ESE 6.9 mph - N/A   Clear
8:56 PM 19.9 °F 8.6 °F 14.0 °F 78% 30.10 in 10.0 mi ESE 10.4 mph - N/A   Clear
9:56 PM 19.9 °F 9.3 °F 14.0 °F 78% 30.05 in 10.0 mi ESE 9.2 mph - N/A   Clear
10:56 PM 25.0 °F 12.2 °F 16.0 °F 69% 29.99 in 10.0 mi SE 16.1 mph - N/A   Clear
11:56 PM 27.0 °F 14.7 °F 17.1 °F 66% 29.94 in 10.0 mi ESE 16.1 mph - N/A   Clear